Danville, IL

5:07 PM CDT on April 23, 2017 (GMT -0500)
Vermilion County

Weather History for KDNV - April, 2013

Change the Weather History Date:

Friday, April 12, 2013

  Actual Average (KCMI) Record (KCMI)
Temperature  
Mean Temperature 40 °F -  
Max Temperature 43 °F 61 °F 80 °F (2014)
Min Temperature 38 °F 39 °F 27 °F (2016)
Degree Days  
Heating Degree Days 24    
Moisture  
Dew Point 34 °F    
Average Humidity 77    
Maximum Humidity 83    
Minimum Humidity 70    
Precipitation  
Precipitation 0.00 in - - ()
Sea Level Pressure  
Sea Level Pressure 29.75 in    
Wind  
Wind Speed 15 mph (WSW)    
Max Wind Speed 22 mph    
Max Gust Speed 30 mph    
Visibility 10 miles    
Events Rain    
Averages and records for this station are not official NWS values.
T = Trace of Precipitation, MM = Missing Value Source: NWS Daily Summary

Daily Weather History Graph

Daily Weather History Graph

Search for Another Location

Airport or City:

Trip Planner

Search our weather history database for the weather conditions in past years. The results will help you decide how hot, cold, wet, or windy it might be!

Date:

Astronomy

Apr. 12, 2013 Rise Set
Actual Time 6:16 AM CDT 7:26 PM CDT
Civil Twilight 5:48 AM CDT 7:54 PM CDT
Nautical Twilight 5:15 AM CDT 8:27 PM CDT
Astronomical Twilight 4:40 AM CDT 9:02 PM CDT
Moon 7:25 AM CDT (4/12) 9:56 PM CDT (4/12)
Length of Visible Light 14h 05m
Length of Day
13h 09m
Waxing Crescent, 5% of the Moon is Illuminated
Apr 12
Waxing Crescent
Apr 18
First Quarter
Apr 25
Full
May 2
Last Quarter
May 9
New

Hourly Weather History & Observations

Time (CDT) Temp. Windchill Dew Point Humidity Pressure Visibility Wind Dir Wind Speed Gust Speed Precip Events Conditions
12:15 AM 40.6 °F 33.4 °F 34.3 °F 78% 29.65 in 10.0 mi West 12.7 mph 20.7 mph N/A   Overcast
12:35 AM 40.5 °F 33.6 °F 34.9 °F 80% 29.65 in 10.0 mi West 11.5 mph - N/A   Overcast
12:55 AM 40.3 °F 33.0 °F 34.9 °F 81% 29.65 in 10.0 mi West 12.7 mph 20.7 mph N/A   Overcast
1:15 AM 40.1 °F 31.0 °F 34.2 °F 79% 29.65 in 10.0 mi West 18.4 mph - N/A   Overcast
1:35 AM 39.6 °F 31.3 °F 33.6 °F 79% 29.65 in 10.0 mi West 15.0 mph - N/A   Overcast
1:55 AM 39.4 °F 30.7 °F 33.1 °F 78% 29.64 in 10.0 mi WSW 16.1 mph 23.0 mph N/A   Overcast
2:15 AM 39.2 °F 31.6 °F 32.9 °F 78% 29.64 in 10.0 mi West 12.7 mph 21.9 mph N/A   Overcast
2:35 AM 39.0 °F 31.4 °F 32.5 °F 78% 29.63 in 10.0 mi West 12.7 mph 17.3 mph N/A   Overcast
2:55 AM 38.8 °F 29.7 °F 32.0 °F 76% 29.63 in 10.0 mi West 17.3 mph 21.9 mph N/A   Overcast
3:15 AM 38.7 °F 30.9 °F 31.5 °F 75% 29.64 in 10.0 mi WSW 12.7 mph 20.7 mph N/A   Overcast
3:35 AM 38.5 °F 30.7 °F 31.3 °F 75% 29.64 in 10.0 mi West 12.7 mph 24.2 mph N/A   Overcast
3:55 AM 38.3 °F 30.5 °F 31.3 °F 76% 29.64 in 10.0 mi West 12.7 mph 18.4 mph N/A   Overcast
4:15 AM 38.3 °F 30.5 °F 31.1 °F 75% 29.63 in 10.0 mi WSW 12.7 mph 19.6 mph N/A   Overcast
4:35 AM 38.3 °F 30.5 °F 30.6 °F 74% 29.63 in 10.0 mi WSW 12.7 mph 19.6 mph N/A   Overcast
4:55 AM 38.3 °F 30.9 °F 30.4 °F 73% 29.63 in 10.0 mi WSW 11.5 mph 16.1 mph N/A   Overcast
5:15 AM 38.3 °F 31.9 °F 31.5 °F 76% 29.64 in 10.0 mi WSW 9.2 mph - N/A   Overcast
5:35 AM 38.3 °F 31.4 °F 32.0 °F 78% 29.65 in 10.0 mi SW 10.4 mph - N/A   Overcast
5:55 AM 38.3 °F 30.9 °F 32.0 °F 78% 29.65 in 10.0 mi WSW 11.5 mph 17.3 mph N/A   Overcast
6:15 AM 38.3 °F 31.4 °F 32.0 °F 78% 29.66 in 10.0 mi SW 10.4 mph - N/A   Overcast
6:35 AM 38.3 °F 30.9 °F 32.2 °F 79% 29.67 in 10.0 mi SW 11.5 mph - N/A   Overcast
6:55 AM 38.3 °F 30.9 °F 32.9 °F 81% 29.67 in 10.0 mi SW 11.5 mph - N/A   Overcast
7:15 AM 38.3 °F 30.1 °F 32.9 °F 81% 29.68 in 10.0 mi SW 13.8 mph 19.6 mph N/A   Overcast
7:35 AM 38.7 °F 30.5 °F 33.3 °F 81% 29.68 in 10.0 mi SW 13.8 mph 18.4 mph N/A   Overcast
7:55 AM 38.8 °F 30.0 °F 33.1 °F 80% 29.68 in 10.0 mi SW 16.1 mph 19.6 mph N/A   Overcast
8:15 AM 39.4 °F 31.8 °F 34.0 °F 81% 29.68 in 10.0 mi SW 12.7 mph 18.4 mph N/A   Overcast
8:35 AM 40.1 °F 31.3 °F 33.4 °F 77% 29.68 in 10.0 mi WSW 17.3 mph 23.0 mph N/A   Overcast
8:55 AM 40.5 °F 31.8 °F 33.8 °F 77% 29.68 in 10.0 mi WSW 17.3 mph 26.5 mph N/A   Overcast
9:15 AM 41.0 °F 31.6 °F 34.2 °F 77% 29.68 in 10.0 mi SW 20.7 mph 27.6 mph N/A   Overcast
9:35 AM 41.4 °F 32.1 °F 34.0 °F 75% 29.68 in 10.0 mi WSW 20.7 mph - N/A   Overcast
9:55 AM 41.0 °F 32.5 °F 33.3 °F 74% 29.68 in 10.0 mi SW 17.3 mph 26.5 mph N/A   Overcast
10:15 AM 40.8 °F 32.0 °F 33.3 °F 74% 29.69 in 10.0 mi WSW 18.4 mph 24.2 mph N/A   Overcast
10:35 AM 41.0 °F 31.6 °F 33.4 °F 74% 29.70 in 10.0 mi WSW 20.7 mph 24.2 mph N/A   Overcast
10:55 AM 41.0 °F 31.6 °F 32.9 °F 73% 29.71 in 10.0 mi WSW 20.7 mph 26.5 mph N/A   Overcast
11:15 AM 41.0 °F 32.5 °F 32.9 °F 73% 29.72 in 10.0 mi WSW 17.3 mph 25.3 mph N/A   Overcast
11:35 AM 41.2 °F 32.7 °F 32.9 °F 72% 29.72 in 10.0 mi WSW 17.3 mph - N/A   Overcast
11:55 AM 40.3 °F 31.9 °F 34.7 °F 80% 29.73 in 7.0 mi WSW 16.1 mph - N/A Rain Light Rain
12:15 PM 41.5 °F 33.2 °F 34.9 °F 77% 29.73 in 10.0 mi SW 17.3 mph 21.9 mph N/A   Overcast
12:35 PM 43.0 °F 35.1 °F 34.9 °F 73% 29.73 in 10.0 mi WSW 17.3 mph 23.0 mph N/A   Mostly Cloudy
12:55 PM 42.1 °F 33.9 °F 33.6 °F 72% 29.73 in 10.0 mi WSW 17.3 mph 26.5 mph N/A   Overcast
1:15 PM 42.3 °F 33.8 °F 34.5 °F 74% 29.74 in 10.0 mi WSW 18.4 mph 23.0 mph N/A   Overcast
1:35 PM 42.4 °F 33.3 °F 33.6 °F 71% 29.75 in 10.0 mi WSW 21.9 mph - N/A   Overcast
1:55 PM 42.4 °F 33.8 °F 33.4 °F 70% 29.75 in 10.0 mi WSW 19.6 mph 27.6 mph N/A   Overcast
2:15 PM 41.7 °F 32.6 °F 34.9 °F 77% 29.77 in 5.0 mi WSW 20.7 mph 27.6 mph N/A   Haze
2:35 PM 42.3 °F 33.1 °F 34.3 °F 74% 29.77 in 10.0 mi WSW 21.9 mph 25.3 mph N/A   Overcast
2:55 PM 42.1 °F 34.5 °F 34.7 °F 75% 29.78 in 10.0 mi WSW 15.0 mph 29.9 mph N/A   Overcast
3:15 PM 42.1 °F 33.1 °F 35.2 °F 77% 29.78 in 10.0 mi WSW 20.7 mph 24.2 mph N/A   Overcast
3:35 PM 42.1 °F 33.6 °F 35.2 °F 77% 29.79 in 10.0 mi WSW 18.4 mph 26.5 mph N/A   Overcast
3:55 PM 43.3 °F 34.7 °F 35.8 °F 75% 29.79 in 10.0 mi WSW 20.7 mph 29.9 mph N/A   Overcast
4:15 PM 43.3 °F 36.1 °F 35.2 °F 73% 29.80 in 10.0 mi West 15.0 mph 26.5 mph N/A   Overcast
4:35 PM 43.0 °F 34.8 °F 34.9 °F 73% 29.81 in 10.0 mi West 18.4 mph 28.8 mph N/A   Overcast
4:55 PM 42.8 °F 34.8 °F 34.9 °F 74% 29.82 in 10.0 mi West 17.3 mph 25.3 mph N/A   Overcast
5:15 PM 42.4 °F 34.1 °F 34.7 °F 74% 29.83 in 10.0 mi WSW 18.4 mph 24.2 mph N/A   Overcast
5:35 PM 42.4 °F 33.8 °F 34.2 °F 72% 29.84 in 10.0 mi WSW 19.6 mph 25.3 mph N/A   Overcast
5:55 PM 42.3 °F 33.8 °F 34.2 °F 73% 29.84 in 10.0 mi West 18.4 mph 24.2 mph N/A   Overcast
6:15 PM 41.9 °F 34.6 °F 34.7 °F 76% 29.85 in 10.0 mi West 13.8 mph 25.3 mph N/A   Overcast
6:35 PM 41.0 °F 33.1 °F 33.8 °F 76% 29.86 in 10.0 mi West 15.0 mph - N/A   Overcast
6:55 PM 41.4 °F 34.0 °F 34.7 °F 77% 29.86 in 7.0 mi WSW 13.8 mph 20.7 mph N/A   Overcast
7:15 PM 41.2 °F 32.4 °F 34.7 °F 78% 29.86 in 10.0 mi WSW 18.4 mph 23.0 mph N/A   Overcast
7:35 PM 41.0 °F 33.1 °F 34.7 °F 78% 29.86 in 10.0 mi WSW 15.0 mph - N/A   Overcast
7:55 PM 41.0 °F 33.5 °F 34.7 °F 78% 29.86 in 10.0 mi WSW 13.8 mph 18.4 mph N/A   Overcast
8:15 PM 41.0 °F 34.3 °F 34.9 °F 79% 29.87 in 10.0 mi WSW 11.5 mph 17.3 mph N/A   Overcast
8:35 PM 41.0 °F 34.7 °F 35.6 °F 81% 29.87 in 10.0 mi WSW 10.4 mph - N/A   Overcast
8:55 PM 41.0 °F 33.9 °F 35.2 °F 80% 29.88 in 10.0 mi WSW 12.7 mph - N/A   Overcast
9:15 PM 41.0 °F 33.5 °F 35.2 °F 80% 29.88 in 10.0 mi WSW 13.8 mph - N/A   Overcast
9:35 PM 40.8 °F 33.3 °F 35.6 °F 82% 29.89 in 10.0 mi WSW 13.8 mph - N/A   Overcast
9:55 PM 40.6 °F 33.4 °F 35.6 °F 82% 29.89 in 10.0 mi WSW 12.7 mph - N/A   Overcast
10:15 PM 41.0 °F 34.3 °F 35.8 °F 82% 29.89 in 10.0 mi WSW 11.5 mph - N/A   Overcast
10:35 PM 41.0 °F 34.7 °F 35.8 °F 82% 29.90 in 10.0 mi WSW 10.4 mph - N/A   Overcast
10:55 PM 41.0 °F 33.9 °F 35.8 °F 82% 29.90 in 10.0 mi SW 12.7 mph - N/A   Overcast
11:15 PM 41.0 °F 34.3 °F 35.8 °F 82% 29.90 in 10.0 mi WSW 11.5 mph - N/A   Overcast
11:35 PM 41.0 °F 33.9 °F 35.8 °F 82% 29.90 in 10.0 mi WSW 12.7 mph - N/A   Overcast
11:55 PM 41.0 °F 34.3 °F 36.1 °F 83% 29.91 in 10.0 mi WSW 11.5 mph - N/A   Overcast